SCP
0 0 0 0 0 0 0 0 0 0 0 0 0 0 0 0 0 0 0 0 0 0 0 0 0 0 0 0 0 0 0 0 0 0 0 0 0 0 0 0 0 0 0 0
0 0 0 0 0 0 0 0 0 0 0 0 0 0 0 0 0 0 0 0 0 0 0 0 0 0 0 0 0 0 0 0 0 0 0 0 0 0 0 0 0 0 0 0
0 0 0 0 0 0 0 0 0 0 0 0 0 0 0 0 0 0 -0 0 0 0 0 0 0 0 0 0 0 0 0 0 0 0 0 0 0 0 0 0 0 0 0 0
0 0 0 0 0 0 0 0 0 0 0 0 0 0 0 0 0 0 0 0 0 0 0 0 0 0 0 0 0 0 0 0 0 0 0 0 0 0 0 0 0 0 0 0
0 0 0 0 0 0 0 0 0 0 0 0 0 0 0 0 0 0 0 0 0 0 0 0 0 0 0 0 0 0 0 0 0 0 0 0 0 0 0 0 0 0 0 0
0 0 0 0 0 0 0 0 0 0 0 0 0 0 0 0 0 0 0 0 0 0 0 0 0 0 0 0 0 0 0 0 0 0 0 0 0 0 0 0 0 0 0 0
0 0 0 0 0 0 0 0 0 0 0 0 0 0 0 0 0 0 0 0 0 0 0 0 0 0 0 0 0 -0 -0 0 0 0 0 0 0 0 0 0 0 0 0 0
0 0 0 0 0 0 0 0 0 0 0 0 0 0 0 0 0 0 0 0 0 0 0 0 0 0 0 -0 -0 -0 -0 -0 0 0 0 0 0 0 0 0 0 0 0 0
0 0 0 0 0 0 0 0 0 0 0 0 0 0 0 0 0 0 0 0 0 0 0 0 0 0 0 0 0 -0 -0 0 0 0 0 0 0 0 0 0 0 0 0 0
0 0 0 0 0 0 0 0 0 0 0 0 0 0 0 0 0 0 0 0 0 0 0 0 0 0 0 0 0 0 0 0 0 0 0 0 0 0 0 0 0 0 0 0
0 0 0 0 0 0 0 0 0 0 0 0 0 0 0 0 0 0 0 0 0 0 0 0 0 0 0 0 0 0 0 0 0 0 0 0 0 0 0 0 0 0 0 0
0 0 0 0 0 0 0 0 0 0 0 0 0 0 0 0 0 0 0 0 0 0 0 0 0 0 0 0 0 0 0 0 0 0 0 0 0 0 0 0 0 0 0 0
0 0 0 0 0 0 0 0 0 0 0 0 0 0 0 0 0 0 0 0 0 0 0 0 0 0 0 0 0 -0 0 0 0 0 0 0 0 0 0 0 0 0 0 0
0 0 0 0 0 0 0 0 0 0 0 0 0 0 0 0 0 0 0 0 0 0 0 0 0 0 0 0 0 -0 -0 0 0 0 0 0 0 0 0 0 0 0 0 0
0 0 0 0 0 0 0 0 0 0 0 0 0 0 0 0 0 0 0 0 0 0 0 0 0 0 0 0 0 0 -0 0 0 0 0 0 0 0 0 0 0 0 0 0
0 0 0 0 0 0 0 0 0 0 0 0 0 0 0 0 0 0 0 0 0 0 0 0 0 0 0 0 0 0 0 0 0 0 0 0 0 0 0 0 0 0 0 0
0 0 0 0 0 0 0 0 0 0 0 0 0 0 0 0 0 0 0 0 0 0 0 0 0 0 0 0 0 0 0 0 0 0 0 0 0 0 0 0 0 0 0 0
0 0 0 0 0 0 0 0 0 0 0 0 0 0 0 0 0 0 0 0 0 0 0 0 0 0 0 0 0 0 0 0 0 0 0 0 0 0 0 0 0 0 0 0
0 0 0 0 0 0 0 -0 0 0 0 0 0 0 0 0 0 0 0 0 0 0 0 0 0 0 0 0 0 0 0 0 0 0 0 0 0 0 0 0 0 0 0 0
0 0 0 0 0 0 0 0 0 0 0 0 0 0 0 0 0 0 0 0 0 0 0 0 0 0 0 0 0 0 0 0 0 0 0 0 0 0 0 0 0 0 0 0
0 0 0 0 0 0 0 0 0 0 0 0 0 0 0 0 0 0 0 0 0 0 0 0 0 0 0 0 0 0 0 0 0 0 0 0 0 0 0 0 0 0 0 0
0 0 0 0 0 0 0 0 0 0 0 0 0 0 0 0 0 0 0 0 0 0 0 0 0 0 0 0 0 0 0 0 0 0 0 0 0 0 0 0 0 0 0 0
0 0 0 0 0 0 0 0 0 0 0 0 0 0 0 0 0 0 0 0 0 0 0 0 0 0 0 0 0 0 0 0 0 0 0 0 0 0 0 0 0 0 0 0
0 0 0 0 0 0 0 0 0 0 0 0 0 0 0 0 0 0 0 0 0 0 0 0 0 0 0 0 0 0 0 0 0 0 0 0 0 0 0 0 0 0 0 0
0 0 0 0 0 0 0 0 0 0 0 0 0 0 0 0 0 0 0 0 0 0 -0 -0 -0 -0 -0 0 0 0 0 0 0 0 0 0 0 0 0 0 0 0 0 0
0 0 0 0 0 0 0 0 0 0 0 0 0 0 0 0 0 0 0 0 0 0 -0 0 0 -0 -0 -0 0 0 0 0 0 0 0 0 0 0 0 0 0 0 0 0
Wind_Speed
2 2 2 2 2 0 2 2 4 3 3 4 6 8 8 7 5 5 6 6 7 8 9 7 6 5 5 5 5 6 6 5 5 4 4 4 5 5 4 4 6 6 6 7
3 2 1 2 3 3 3 4 3 3 2 4 5 7 5 4 3 4 6 7 8 9 8 8 7 5 5 5 5 5 5 5 5 4 4 4 4 4 4 3 4 5 6 6
1 1 2 3 4 4 4 5 3 3 4 3 5 4 1 2 3 4 6 8 8 8 9 9 8 7 6 5 5 4 4 4 4 5 4 4 4 3 3 4 3 4 5 6
0 1 2 3 3 4 3 3 4 5 4 1 3 3 1 3 4 6 8 9 10 9 8 8 8 7 6 6 5 4 3 3 3 4 4 5 5 4 4 3 3 3 4 4
0 1 2 2 2 4 2 2 4 4 3 3 2 4 2 1 4 7 8 9 10 10 9 9 9 8 7 6 5 3 3 2 2 3 4 5 4 3 2 3 3 3 2 3
0 1 2 2 2 3 2 2 2 2 3 4 2 4 2 1 4 6 7 8 9 9 9 9 9 8 7 7 5 4 4 3 1 1 3 4 5 4 4 3 3 2 2 2
1 1 1 2 1 2 2 2 2 3 4 2 1 3 2 1 3 4 6 7 8 9 9 9 10 9 8 8 7 5 5 4 2 1 1 2 4 4 4 3 3 3 2 2
1 1 1 1 2 2 2 3 3 2 2 0 2 3 0 1 2 3 4 6 7 8 9 9 9 9 8 7 7 6 5 5 4 3 2 1 1 1 2 2 2 2 2 2
2 1 1 1 2 2 2 1 2 2 2 3 2 2 2 1 1 3 4 6 7 8 8 9 9 9 8 8 7 6 5 5 5 4 3 2 2 1 1 1 1 1 2 2
2 2 2 2 2 1 2 0 2 2 3 2 2 3 2 3 3 2 3 5 6 6 7 8 8 8 8 7 6 6 6 6 5 5 3 2 2 1 1 1 1 1 1 2
2 2 2 1 1 1 1 1 1 1 3 4 3 1 2 2 2 1 2 3 4 5 6 6 6 7 7 6 6 6 6 5 5 4 4 3 1 1 1 1 0 1 1 1
1 2 3 2 1 1 2 1 2 3 2 3 4 1 3 1 1 1 2 2 3 4 4 5 6 6 6 6 6 6 6 5 4 4 3 3 2 1 1 1 1 1 1 2
1 2 3 2 3 2 2 2 2 2 2 3 4 1 3 1 2 2 2 2 2 3 3 4 5 5 6 6 6 5 5 5 4 4 3 3 3 2 2 1 1 1 1 2
2 3 4 4 3 3 5 4 4 4 4 4 6 5 3 4 4 3 3 3 2 2 3 3 4 4 5 5 4 4 4 4 4 4 3 3 3 2 2 2 2 2 2 2
2 3 4 8 8 7 8 9 8 8 8 7 6 6 7 5 4 4 3 3 3 3 3 3 3 3 4 4 4 4 4 4 4 4 4 4 3 3 2 2 2 2 1 2
2 3 4 6 4 6 9 10 10 10 9 10 10 10 6 4 4 4 4 4 4 4 3 3 3 3 3 3 4 3 3 3 3 3 4 4 4 3 3 3 2 2 1 2
2 3 4 4 5 7 7 6 8 7 7 8 8 6 2 3 4 5 5 5 6 5 4 3 3 3 3 3 3 3 3 2 2 3 3 4 4 4 4 4 4 3 3 2
3 3 3 5 5 5 0 1 3 6 7 8 8 7 5 5 4 5 5 6 6 5 4 4 3 3 3 2 2 2 2 2 2 3 3 4 3 4 4 4 5 4 4 3
6 4 3 3 5 7 3 3 4 5 4 5 7 7 5 3 4 5 5 6 6 5 5 4 3 3 2 2 1 1 1 2 2 3 3 4 4 4 4 4 5 4 4 4
4 4 4 3 5 5 0 2 2 3 4 3 5 4 3 3 4 2 2 4 5 4 3 3 2 2 2 2 1 0 1 1 2 3 3 3 3 3 3 4 4 4 3 4
4 5 6 7 6 8 2 2 4 4 0 2 4 4 5 6 4 2 1 3 4 3 3 3 3 3 2 2 1 1 1 2 2 2 2 2 2 3 3 3 3 3 3 3
6 6 7 6 7 7 4 6 6 3 1 2 4 5 6 6 4 3 4 4 4 4 3 3 3 3 2 2 2 2 2 2 2 2 1 1 2 2 2 3 3 3 3 3
8 7 4 8 7 2 4 7 4 2 4 4 5 5 6 6 6 5 5 5 4 4 4 4 4 4 3 3 3 3 3 2 2 2 1 1 2 2 2 2 3 3 3 3
5 5 6 8 11 10 9 10 10 8 9 8 7 6 7 7 7 6 6 5 5 5 5 4 5 5 4 4 3 4 3 2 2 2 2 1 1 2 2 2 2 2 3 3
6 6 7 10 10 9 9 9 8 7 7 7 7 7 8 8 8 7 6 6 6 5 5 5 5 6 5 4 4 3 3 3 3 2 2 2 2 2 2 2 2 3 2 3
11 12 10 11 8 7 6 3 4 6 7 7 6 6 7 8 8 7 7 6 6 6 5 5 6 6 5 4 4 3 3 3 3 3 2 2 2 2 2 3 3 3 4 4
Wind_Direction
133 168 177 187 217 196 191 229 262 280 289 289 277 286 304 318 315 316 323 328 326 324 326 326 324 317 304 285 271 258 249 240 228 218 213 211 209 198 192 194 197 201 200 197
150 179 206 203 206 211 222 238 261 283 282 277 284 290 304 326 337 345 344 341 335 331 335 339 335 330 323 312 298 280 254 238 228 219 216 217 214 198 192 183 192 199 200 202
151 86 185 202 208 219 239 244 256 281 305 257 280 266 215 359 1 3 359 351 344 339 338 339 339 336 334 328 312 292 270 246 232 222 214 205 194 187 191 184 192 203 202 200
113 193 206 220 224 232 244 236 244 258 270 271 302 279 239 332 345 0 359 357 351 350 347 345 343 338 334 333 326 309 289 261 236 211 202 202 194 194 196 195 189 196 204 205
147 204 221 232 259 238 249 253 244 246 254 266 231 261 254 329 329 348 355 356 355 358 356 353 353 349 346 345 343 341 335 311 245 211 199 197 197 199 192 190 183 189 196 206
308 297 272 279 287 232 234 235 213 207 230 244 224 245 258 331 319 334 351 356 356 360 1 359 356 354 355 356 2 10 4 356 346 196 195 188 183 185 179 189 189 193 198 203
51 157 223 249 250 176 223 243 216 202 212 223 141 242 267 352 331 334 343 351 358 1 2 3 1 360 0 3 9 13 11 17 21 86 146 180 183 180 188 196 197 199 203 212
9 67 20 288 287 260 243 272 297 293 282 154 193 242 174 92 355 353 352 358 4 6 5 7 4 4 5 7 10 12 16 20 27 38 54 89 130 163 187 198 196 202 212 226
353 357 352 303 282 258 235 228 333 292 280 261 220 225 201 190 318 350 359 3 4 2 3 5 6 7 8 9 11 15 19 25 27 30 37 47 76 110 147 177 196 218 225 230
317 292 297 302 220 160 314 307 224 252 282 277 242 225 216 207 256 312 350 353 355 356 359 1 5 6 6 7 8 15 21 25 26 26 26 37 61 77 116 137 160 208 231 235
281 282 288 254 276 326 164 172 263 265 297 296 292 112 105 203 220 262 319 336 345 353 356 359 0 1 2 7 14 18 19 20 21 21 22 30 54 72 99 104 180 245 249 255
303 286 284 277 322 290 267 276 258 279 263 265 281 288 99 193 204 240 288 322 340 347 349 354 358 358 1 5 9 11 11 14 13 11 17 25 28 38 50 42 271 259 256 258
277 274 288 201 175 182 244 242 253 280 272 242 253 224 115 195 227 240 268 296 318 329 343 354 356 354 357 359 1 3 5 4 5 7 10 15 16 17 14 349 324 303 274 267
260 255 262 285 322 308 274 257 235 232 244 249 245 265 253 250 251 247 252 271 291 309 329 344 347 347 351 354 354 354 358 359 2 5 8 9 4 355 346 337 321 291 277 275
279 263 258 269 274 271 266 261 240 229 240 252 262 263 267 263 251 244 241 249 271 294 314 326 330 334 343 350 351 347 352 355 358 4 8 3 359 354 345 335 322 311 301 287
304 280 283 273 254 272 266 257 243 238 237 242 259 270 269 255 235 234 231 235 249 266 281 294 306 318 331 341 345 345 341 349 356 1 2 359 3 6 4 1 356 346 325 297
277 285 293 280 306 291 263 244 217 217 218 221 237 246 222 233 235 237 234 232 243 253 261 271 283 296 310 322 335 338 337 341 357 4 6 6 9 5 2 11 15 12 359 360
250 264 276 296 310 261 27 97 219 228 242 232 251 259 247 254 264 256 240 237 242 244 249 259 270 279 293 308 322 337 356 14 14 8 4 2 5 6 7 18 17 13 12 11
228 241 264 279 288 279 274 202 200 220 255 224 236 254 262 261 261 245 225 232 239 239 243 251 254 260 267 282 308 343 5 18 15 360 353 355 1 3 7 14 9 5 7 6
188 224 245 249 267 262 9 126 183 229 245 183 216 235 230 204 242 236 183 229 238 241 242 246 246 247 250 263 265 259 342 356 344 333 336 349 358 357 1 2 1 359 359 355
187 201 222 234 251 268 265 155 178 228 50 147 213 220 206 217 258 322 223 234 234 236 235 230 224 231 243 242 220 222 286 302 305 314 326 344 352 353 353 355 357 355 353 352
209 203 208 207 226 251 153 163 211 276 25 228 233 229 228 240 258 248 238 235 227 227 225 219 220 230 232 218 207 219 251 275 289 293 303 327 341 351 350 349 348 347 343 341
223 221 221 218 236 303 192 223 251 271 259 254 246 241 236 243 245 240 238 236 230 227 221 217 220 227 225 217 217 232 254 262 259 259 278 306 325 337 342 337 334 333 335 332
231 214 236 254 258 255 251 253 256 251 251 258 253 246 232 238 242 239 237 235 231 228 226 221 218 224 226 219 223 240 252 245 237 242 259 283 299 312 321 318 319 318 324 323
234 193 225 251 266 275 256 239 245 250 249 252 249 241 235 238 242 238 237 235 231 228 222 218 221 228 232 224 224 232 236 230 231 241 254 268 277 289 297 299 300 295 298 311
212 209 218 242 239 238 257 239 238 250 254 251 249 249 239 234 241 241 239 236 233 231 223 220 224 229 231 224 224 225 224 223 229 237 246 256 267 273 278 285 288 276 275 303